Location: Silverdale
(47.6506°N, 122.6941°W)
Time: 03:46:12
(UTC+00:00)

Altair - Pass Details

Date: 08 October 2022
Orbit: 1501 x 1682 km, 47.2° (Epoch: 05 December)

Event Time Altitude Azimuth Distance (km) Brightness Sun altitude
Rises 14:23:08 0° 267° (W) 4,789 9.4 -0.3°
Reaches altitude 10° 14:26:11 10° 267° (W) 3,828 9.0 0.2°
Maximum altitude 14:36:03 89° 179° (S) 1,656 7.8 1.8°
Drops below altitude 10° 14:46:14 10° 92° (E) 3,939 11.8 3.5°
Sets 14:49:25 0° 92° (E) 4,933 12.3 4.0°
